When you browse on this site, cookies collect data to enhance your experience and personalize the content and advertising you see.
Visit our Privacy Policy to learn more. By continuing to use the site, you agree to this use of cookies and data.
  • In Austria
  • List of Countries
  • For 7 days
  • Water Temperature
  • Satellite Maps
  • Weather Map
  • News
  • Weather Widgets
  • user-avatar
    Login

    Hourly Weather Klagenfurt

    Today, 20 March, Wednesday

    Time Temperature Precipitation Wind Pressure Humidity
    00:00 -1°C° 0 mm 1 mps 696 mmHg 83%
    01:00 -2°C° 0 mm 1 mps 696 mmHg 85%
    02:00 -2°C° 0 mm 1 mps 696 mmHg 84%
    03:00 -2°C° 0 mm 1 mps 696 mmHg 84%
    04:00 -4°C° 0 mm 2 mps 696 mmHg 83%
    05:00 -4°C° 0 mm 2 mps 697 mmHg 81%
    06:00 -3°C° 0 mm 2 mps 697 mmHg 79%
    07:00 -2°C° 0 mm 2 mps 698 mmHg 74%
    08:00 -1°C° 0 mm 2 mps 698 mmHg 67%
    09:00 +2°C° 0 mm 2 mps 698 mmHg 60%
    10:00 +4°C° 0 mm 2 mps 699 mmHg 52%
    11:00 +5°C° 0 mm 2 mps 699 mmHg 49%
    12:00 +6°C° 0 mm 2 mps 699 mmHg 46%
    13:00 +7°C° 0 mm 2 mps 699 mmHg 43%
    14:00 +7°C° 0 mm 2 mps 699 mmHg 44%
    15:00 +7°C° 0 mm 2 mps 699 mmHg 45%
    16:00 +7°C° 0 mm 2 mps 698 mmHg 46%
    17:00 +5°C° 0 mm 2 mps 698 mmHg 54%
    18:00 +4°C° 0 mm 1 mps 698 mmHg 61%
    19:00 +2°C° 0 mm 1 mps 698 mmHg 69%
    20:00 +1°C° 0 mm 1 mps 699 mmHg 71%
    21:00 0°C° 0 mm 1 mps 699 mmHg 74%
    22:00 0°C° 0 mm 1 mps 699 mmHg 76%
    23:00 0°C° 0 mm 1 mps 699 mmHg 77%

    Tomorrow, 21 March, Thursday

    Time Temperature Precipitation Wind Pressure Humidity
    00:00 -1°C° 0 mm 1 mps 699 mmHg 79%
    01:00 -1°C° 0 mm 1 mps 700 mmHg 80%
    02:00 -1°C° 0 mm 1 mps 699 mmHg 80%
    03:00 -1°C° 0 mm 1 mps 699 mmHg 81%
    04:00 -1°C° 0 mm 1 mps 699 mmHg 81%
    05:00 -1°C° 0 mm 1 mps 699 mmHg 79%
    06:00 -1°C° 0 mm 1 mps 699 mmHg 77%
    07:00 0°C° 0 mm 1 mps 700 mmHg 75%
    08:00 +2°C° 0 mm 1 mps 700 mmHg 66%
    09:00 +5°C° 0 mm 1 mps 700 mmHg 57%
    10:00 +7°C° 0 mm 1 mps 700 mmHg 48%
    11:00 +9°C° 0 mm 1 mps 700 mmHg 45%
    12:00 +10°C° 0 mm 1 mps 700 mmHg 41%
    13:00 +11°C° 0 mm 1 mps 700 mmHg 38%
    14:00 +11°C° 0 mm 1 mps 700 mmHg 40%
    15:00 +11°C° 0 mm 1 mps 699 mmHg 41%
    16:00 +11°C° 0 mm 1 mps 699 mmHg 43%
    17:00 +8°C° 0 mm 1 mps 699 mmHg 51%
    18:00 +6°C° 0 mm 1 mps 699 mmHg 60%
    19:00 +3°C° 0 mm 1 mps 698 mmHg 69%
    20:00 +3°C° 0 mm 1 mps 699 mmHg 71%
    21:00 +2°C° 0 mm 1 mps 699 mmHg 72%
    22:00 +1°C° 0 mm 0 mps 699 mmHg 74%
    23:00 0°C° 0 mm 0 mps 699 mmHg 75%

    Day after tomorrow, 22 March, Friday

    Time Temperature Precipitation Wind Pressure Humidity
    00:00 +1°C° 0 mm 1 mps 699 mmHg 75%
    01:00 +1°C° 0 mm 1 mps 699 mmHg 75%
    02:00 +1°C° 0 mm 1 mps 699 mmHg 74%
    03:00 +1°C° 0 mm 1 mps 698 mmHg 74%
    04:00 +1°C° 0 mm 1 mps 698 mmHg 73%
    05:00 +1°C° 0 mm 1 mps 698 mmHg 70%
    06:00 +2°C° 0 mm 1 mps 698 mmHg 67%
    07:00 +2°C° 0 mm 1 mps 698 mmHg 65%
    08:00 +5°C° 0 mm 1 mps 699 mmHg 57%
    09:00 +8°C° 0 mm 1 mps 699 mmHg 48%
    10:00 +11°C° 0 mm 1 mps 699 mmHg 40%
    11:00 +12°C° 0 mm 1 mps 699 mmHg 38%
    12:00 +13°C° 0 mm 1 mps 699 mmHg 36%
    13:00 +14°C° 0 mm 1 mps 699 mmHg 35%
    14:00 +14°C° 0 mm 1 mps 699 mmHg 37%
    15:00 +14°C° 0 mm 1 mps 698 mmHg 39%
    16:00 +13°C° 0 mm 1 mps 698 mmHg 42%
    17:00 +11°C° 0 mm 1 mps 698 mmHg 50%
    18:00 +8°C° 0 mm 1 mps 697 mmHg 58%
    19:00 +5°C° 0 mm 0 mps 697 mmHg 67%
    20:00 +4°C° 0 mm 0 mps 697 mmHg 68%
    21:00 +4°C° 0 mm 0 mps 697 mmHg 70%
    22:00 +3°C° 0 mm 0 mps 697 mmHg 72%
    23:00 +3°C° 0 mm 0 mps 697 mmHg 72%

    23 March, Saturday

    Time Temperature Precipitation Wind Pressure Humidity
    00:00 +4°C° 0 mm 1 mps 697 mmHg 73%
    01:00 +3°C° 0 mm 1 mps 697 mmHg 73%
    02:00 +3°C° 0 mm 1 mps 697 mmHg 73%
    03:00 +3°C° 0 mm 1 mps 697 mmHg 73%
    04:00 +3°C° 0 mm 1 mps 696 mmHg 73%
    05:00 +3°C° 0 mm 1 mps 697 mmHg 71%
    06:00 +4°C° 0 mm 1 mps 697 mmHg 69%
    07:00 +4°C° 0 mm 1 mps 697 mmHg 67%
    08:00 +7°C° 0 mm 1 mps 697 mmHg 59%
    09:00 +10°C° 0 mm 1 mps 698 mmHg 51%
    10:00 +13°C° 0 mm 1 mps 698 mmHg 43%
    11:00 +14°C° 0 mm 1 mps 698 mmHg 41%
    12:00 +15°C° 0 mm 1 mps 698 mmHg 39%
    13:00 +18°C° 0 mm 1 mps 698 mmHg 37%
    14:00 +16°C° 0 mm 1 mps 697 mmHg 39%
    15:00 +16°C° 0 mm 1 mps 697 mmHg 41%
    16:00 +16°C° 0 mm 1 mps 697 mmHg 43%
    17:00 +13°C° 0 mm 1 mps 696 mmHg 52%
    18:00 +11°C° 0 mm 1 mps 696 mmHg 61%
    19:00 +7°C° 0 mm 0 mps 696 mmHg 70%
    20:00 +7°C° 0 mm 0 mps 696 mmHg 72%
    21:00 +6°C° 0 mm 0 mps 696 mmHg 73%
    22:00 +6°C° 0 mm 0 mps 696 mmHg 75%
    23:00 +5°C° 0 mm 0 mps 696 mmHg 76%

    24 March, Sunday

    Time Temperature Precipitation Wind Pressure Humidity
    00:00 +5°C° 0 mm 0 mps 696 mmHg 77%
    01:00 +5°C° 0 mm 0 mps 695 mmHg 78%
    02:00 +4°C° 0 mm 0 mps 695 mmHg 78%
    03:00 +5°C° 0 mm 1 mps 695 mmHg 79%
    04:00 +5°C° 0 mm 1 mps 695 mmHg 80%
    05:00 +5°C° 0 mm 1 mps 695 mmHg 79%
    06:00 +4°C° 0 mm 0 mps 695 mmHg 77%
    07:00 +5°C° 0 mm 0 mps 695 mmHg 76%
    08:00 +8°C° 0 mm 0 mps 695 mmHg 67%
    09:00 +11°C° 0 mm 0 mps 695 mmHg 58%
    10:00 +14°C° 0 mm 0 mps 695 mmHg 49%
    11:00 +16°C° 0 mm 1 mps 695 mmHg 46%
    12:00 +16°C° 0 mm 1 mps 695 mmHg 43%
    13:00 +18°C° 0 mm 1 mps 695 mmHg 41%
    14:00 +18°C° 0 mm 1 mps 694 mmHg 41%
    15:00 +18°C° 0 mm 1 mps 694 mmHg 42%
    16:00 +18°C° 0 mm 1 mps 693 mmHg 43%
    17:00 +14°C° 0 mm 1 mps 693 mmHg 51%
    18:00 +12°C° 0 mm 1 mps 692 mmHg 60%
    19:00 +10°C° 0 mm 1 mps 692 mmHg 68%
    20:00 +9°C° 0 mm 1 mps 692 mmHg 71%
    21:00 +8°C° 0 mm 1 mps 692 mmHg 74%
    22:00 +8°C° 0 mm 1 mps 692 mmHg 77%
    23:00 +7°C° 0 mm 1 mps 692 mmHg 78%

    25 March, Monday

    Time Temperature Precipitation Wind Pressure Humidity
    00:00 +7°C° 0 mm 1 mps 692 mmHg 79%
    01:00 +7°C° 0 mm 1 mps 692 mmHg 81%
    02:00 +7°C° 0 mm 1 mps 691 mmHg 82%
    03:00 +6°C° 0 mm 1 mps 691 mmHg 83%
    04:00 +6°C° 0 mm 1 mps 691 mmHg 84%
    05:00 +6°C° 0 mm 1 mps 691 mmHg 83%
    06:00 +7°C° 0 mm 1 mps 691 mmHg 82%
    07:00 +7°C° 0 mm 1 mps 691 mmHg 81%
    08:00 +9°C° 0 mm 1 mps 691 mmHg 74%
    09:00 +11°C° 0 mm 1 mps 691 mmHg 67%
    10:00 +13°C° 0 mm 1 mps 691 mmHg 60%
    11:00 +14°C° 0 mm 1 mps 691 mmHg 56%
    12:00 +16°C° 0 mm 1 mps 691 mmHg 51%
    13:00 +18°C° 0 mm 1 mps 691 mmHg 47%
    14:00 +16°C° 0.1 mm 1 mps 690 mmHg 48%
    15:00 +16°C° 0.1 mm 1 mps 690 mmHg 49%
    16:00 +15°C° 0.1 mm 1 mps 689 mmHg 50%
    17:00 +14°C° 0.6 mm 1 mps 689 mmHg 58%
    18:00 +12°C° 0.6 mm 1 mps 689 mmHg 67%
    19:00 +10°C° 0.6 mm 1 mps 689 mmHg 76%
    20:00 +10°C° 0.5 mm 1 mps 689 mmHg 77%
    21:00 +9°C° 0.5 mm 1 mps 689 mmHg 79%
    22:00 +8°C° 0.5 mm 1 mps 689 mmHg 81%
    23:00 +8°C° 0.1 mm 1 mps 689 mmHg 82%
    Show more